Location: SE Lincoln, NE
(40.7805°N, 96.6275°W)
Time: 03:37:55
(UTC-05:00)

COSMOS 2406 - Pass Details

Date: 15 May 2021
Orbit: 844 x 862 km, 71.0° (Epoch: 23 June)

Event Time Altitude Azimuth Distance (km) Brightness Sun altitude
Rises 22:46:27 0° 327° (NNW) 3,412 7.9 -19.9°
Reaches altitude 10° 22:49:05 10° 319° (NW) 2,474 6.8 -20.2°
Maximum altitude 22:54:09 35° 256° (WSW) 1,347 4.4 -20.8°
Enters shadow 22:57:29 19° 203° (SSW) 1,913 4.8 -21.2°
